Home   Weather   Sherbrooke   Past weeks

Flag for Canada Past Weather in Sherbrooke, Quebec, Canada — Yesterday and Last 2 Weeks

Now
77 °F

Scattered clouds.


Feels Like: 79 °F
Forecast: 59 / 77 °F
Wind: 14 mph from West

Location: Sherbrooke

Current Time: Jul 21, 2017 at 2:58:05 pm

Latest Report: Jul 21, 2017 at 2:00 pm


Visibility: 9 mi

Pressure: 29.79 "Hg

Humidity: 61%

Dew Point: 63 °F

Location of SherbrookeLocation

Past Weather in Sherbrooke — Graph

°F

Sherbrooke Temperature Yesterday

Maximum temperature yesterday: 81 °F (at 2:00 pm)
Minimum temperature yesterday: 61 °F (at 10:17 pm)
Average temperature yesterday: 68 °F

High & Low Weather Summary for the Past Weeks

 TemperatureHumidityPressure
High82 °F (Jul 7, 3:00 pm)100% (Jul 7, 6:59 pm)30.14 "Hg (Jul 7, 6:59 pm)
Low46 °F (Jul 14, 5:00 am)45% (Jul 16, 4:00 pm)29.65 "Hg (Jul 8, 2:00 pm)
Average65 °F86%29.93 "Hg
* Reported Jul 6 1:00 pm — Jul 21 1:00 pm, Sherbrooke. Weather by CustomWeather, © 2017

Note: Actual official high and low records may vary slightly from our data, if they occured in-between our weather recording intervals... More about our weather records

Advertising

Sherbrooke Weather History for the Previous 24 Hours

Scroll right to see more
 ConditionsComfort  
Time TempWeatherWind HumidityBarometerVisibility
1:00 pm
Fri, Jul 21
79 °FPassing clouds.9 mph58%29.80 "Hg9 mi
12:00 pm77 °FSunny.12 mph61%29.80 "Hg9 mi
11:00 am75 °FSunny.9 mph65%29.83 "Hg9 mi
10:00 am72 °FSunny.7 mph73%29.85 "Hg9 mi
9:00 am70 °FSunny.6 mph78%29.86 "Hg9 mi
8:00 am66 °FSunny.6 mph83%29.86 "Hg9 mi
7:00 am63 °FSunny.2 mph88%29.85 "Hg9 mi
6:00 am59 °FPartly sunny.2 mph100%29.85 "Hg9 mi
5:00 am57 °FClear.No wind100%29.84 "Hg9 mi
4:30 am57 °FFog.2 mph100%29.83 "Hg5 mi
4:00 am57 °FClear.No wind100%29.83 "Hg9 mi
3:47 am57 °FFog.No wind100%29.83 "Hg6 mi
3:35 am59 °FFog.No wind100%29.82 "Hg3 mi
3:00 am61 °FClear.3 mph100%29.82 "Hg9 mi
2:17 am59 °FFog.2 mph100%29.83 "Hg6 mi
2:03 am59 °FFog.No wind100%29.83 "Hg2 mi
1:15 am59 °FFog.No wind100%29.83 "Hg6 mi
1:00 am61 °FFog.No wind94%29.84 "Hg5 mi
12:34 am61 °FFog.No wind100%29.84 "Hg5 mi
12:01 am61 °FFog.2 mph94%29.85 "Hg5 mi
11:00 pm
Thu, Jul 20
61 °FClear.2 mph100%29.85 "Hg9 mi
10:28 pm63 °FFog.2 mph100%29.85 "Hg6 mi
10:17 pm61 °FFog.No wind100%29.85 "Hg2 mi
10:00 pm64 °FClear.No wind94%29.85 "Hg9 mi
9:21 pm64 °FFog.3 mph100%29.85 "Hg6 mi
9:08 pm64 °FFog.3 mph100%29.85 "Hg3 mi
8:00 pm68 °FSunny.No wind94%29.83 "Hg9 mi
7:00 pm70 °FScattered clouds.5 mph88%29.83 "Hg9 mi
6:18 pm70 °FPassing clouds.3 mph83%29.85 "Hg9 mi
6:00 pm68 °FLight rain. Broken clouds.2 mph88%29.85 "Hg9 mi
5:17 pm72 °FLight rain. Cloudy.7 mph83%29.85 "Hg9 mi
5:03 pm75 °FThundershowers. Partly sunny.6 mph69%29.85 "Hg9 mi
4:54 pm75 °FThundershowers. Partly sunny.5 mph69%29.85 "Hg9 mi
4:00 pm79 °FPassing clouds.6 mph58%29.86 "Hg9 mi
3:00 pm81 °FPassing clouds.6 mph54%29.86 "Hg9 mi
2:00 pm81 °FPassing clouds.9 mph54%29.88 "Hg9 mi
Weather by CustomWeather, © 2017

See weather overviewHow to use our weather pages